Location: Decatur Area Astronomy Club
(40.0275°N, 88.7810°W)
Time: 11:50:28
(UTC-05:00)

Daily predictions for brighter satellites

Satellite Brightness Start Highest point End
(mag) Time Altitude Azimuth Time Altitude Azimuth Time Altitude Azimuth
H-2A R/B 2.8 20:36:38 10° SSE 20:40:34 86° ENE 20:44:33 10° N
BREEZE-M DEB (TANK) 3.8 20:37:13 10° SSW 20:43:30 33° SSE 20:46:04 10° E
ERS-1 Rocket 3.2 20:38:53 10° SSE 20:43:46 55° ENE 20:48:41 10° N
Cosmos 1975 4.5 20:40:25 10° NNW 20:44:06 36° W 20:47:46 10° SSW
Envisat 4.0 20:40:40 10° SE 20:45:01 30° ENE 20:49:24 10° N
FENGYUN 3A 3.8 20:40:45 10° SSE 20:46:07 85° WSW 20:51:33 10° NNW
Cosmos 1110 Rocket 4.1 20:41:07 10° NNW 20:46:24 64° ENE 20:51:37 10° SSE
Cosmos 1606 Rocket 3.6 20:42:09 10° N 20:46:36 73° E 20:51:00 10° SSE
USA 234 4.1 20:44:43 10° E 20:50:48 42° NNE 20:56:53 10° NW
H-2A R/B 2.3 20:49:23 10° SSE 20:53:30 55° ENE 20:57:44 10° N
Abrixas rocket 3.0 20:56:59 10° NW 21:00:19 48° NNE 21:03:38 10° E
ATLAS CENTAUR R/B 3.0 20:57:07 10° SW 21:01:56 50° NW 21:06:51 10° NNE
Cosmos 1626 Rocket 4.5 20:58:32 10° SSE 21:02:25 30° E 21:06:17 10° NNE
SL-24 R/B - RUBIN 2 4.5 20:58:02 10° SW 21:03:23 75° NW 21:09:31 10° NNE
Cosmos 2237 Rocket 3.7 21:00:01 10° SW 21:05:19 42° WNW 21:10:40 10° N
SJ-11-01 4.3 21:03:16 10° SSE 21:07:55 85° ENE 21:12:37 10° NNW
Atlas Centaur 2 3.8 21:04:22 10° SW 21:10:46 29° SSE 21:17:47 10° ESE
Cosmos 2278 Rocket 3.5 21:08:12 10° NW 21:13:26 39° WSW 21:18:38 10° S
Meteor 1-15 Rocket 4.2 21:11:00 10° N 21:16:35 70° E 21:22:12 10° SSE
Cosmos 2228 3.1 21:13:03 10° N 21:17:26 66° E 21:21:32 12° SSE
Cosmos 494 Rocket 4.1 21:14:11 10° SSW 21:19:17 81° WNW 21:24:26 10° NNE
PSLV R/B 4.0 21:16:22 10° SW 21:19:35 34° SSE 21:22:27 12° E
USA 186 4.3 21:18:44 10° SW 21:20:45 17° W 21:22:43 10° NW
Aureole 2 Rocket 2.6 21:16:51 10° SSW 21:20:51 73° ESE 21:24:31 10° NNE
COSMOS 2455 3.5 21:16:47 10° S 21:22:01 32° ESE 21:27:16 10° NE
H-2A R/B 4.1 21:20:15 10° E 21:22:10 12° ENE 21:24:06 10° NE
Cosmos 1939 Rocket 2.9 21:18:34 11° SSE 21:22:38 85° ENE 21:26:49 10° N
Cosmos 1892 Rocket 4.4 21:18:46 10° SSW 21:23:05 52° W 21:27:28 10° N
Cosmos 2369 Rocket 3.9 21:23:26 10° N 21:27:35 20° NE 21:31:20 11° E
SPOT 1/Viking Rocket 4.3 21:26:44 17° SE 21:30:11 38° ENE 21:34:55 10° N
SPOT 5 2.6 21:26:56 15° SSE 21:30:30 69° ENE 21:34:51 10° N
Cosmos 1666 2.7 21:27:39 10° N 21:31:34 87° W 21:34:49 14° S
Nimbus 7 Rocket 4.4 21:25:48 10° NNE 21:31:49 89° ESE 21:37:43 10° SSW
SL-16 R/B 3.0 21:26:44 10° SW 21:32:17 56° WNW 21:37:52 10° NNE
ARGOS 4.1 21:29:23 17° ESE 21:32:48 33° ENE 21:37:37 10° N
Lacrosse 5 rocket 3.5 21:32:44 10° W 21:36:08 28° NW 21:39:41 10° NNE
CZ-4 SHROUD 3.2 21:34:31 20° S 21:36:35 85° W 21:39:45 10° NNW
Tsikada Rocket 4.0 21:34:57 10° S 21:41:20 73° E 21:47:43 10° N
NAVSTAR 52 R/B(PAM-D 4.4 21:37:32 10° W 21:42:07 74° S 21:43:46 27° ESE
DEBRIS 2.3 21:39:38 10° WNW 21:44:26 70° SW 21:45:17 37° SE
Cosmos 1302 Rocket 4.3 21:46:27 10° NNW 21:51:38 64° WSW 21:55:30 18° S
MetOp-B 4.1 21:49:01 20° SSE 21:52:48 86° ENE 21:58:11 10° NNW
Lacrosse 4 Rocket 3.6 21:55:02 11° ENE 21:55:02 11° ENE 21:55:27 10° ENE
SeaSat 1 2.7 21:50:09 20° SSE 21:53:32 66° WSW 21:58:28 10° NNW
SL-08 RB Rocket 4.3 21:55:15 28° ESE 21:57:08 42° ENE 22:01:25 10° N
Terra 3.3 21:56:20 19° E 21:58:01 23° ENE 22:01:43 10° NNE
CZ-4B R/B 3.4 21:53:48 10° NNE 21:58:53 82° ESE 22:03:35 13° SSW
Cosmos 1515 3.8 21:58:52 35° SSE 22:00:15 57° E 22:04:03 10° NNE
Cosmos 1603 3.7 21:55:24 10° SSW 22:01:01 84° WNW 22:06:40 10° NNE
UNK 4.3 21:55:42 10° NNE 22:01:06 80° WNW 22:06:46 10° SSW
Cosmos 1346 Rocket 3.8 22:03:05 27° E 22:03:06 27° E 22:06:25 10° NNE
APEX 4.5 22:00:29 10° NW 22:04:27 45° WSW 22:07:37 20° S
Cosmos 1238 4.2 22:05:02 36° SSW 22:06:12 82° W 22:09:14 10° N
Cosmos 1602 Rocket 4.5 22:02:10 10° SSW 22:06:31 49° W 22:10:52 10° N
Cosmos 1461 3.1 22:05:26 10° NW 22:09:40 61° WSW 22:11:08 36° S
Cosmos 1825 Rocket 3.7 22:10:25 37° SSE 22:11:54 58° E 22:16:17 10° NNE
Cosmos 1812 Rocket 4.0 22:13:23 10° NNW 22:17:41 57° W 22:19:54 27° SSW
ATLAS 3B R/B 3.1 22:16:52 15° S 22:23:05 52° ESE 22:30:23 10° NE
Envisat 4.5 22:19:51 12° SSW 22:23:57 31° W 22:28:27 10° NW
Cosmos 1634 Rocket 3.9 22:18:51 10° N 22:25:03 77° E 22:27:54 34° SSE
YAOGAN 6 3.4 22:24:55 33° SSW 22:26:06 46° W 22:29:44 10° NNW
Cosmos 1943 3.1 22:23:34 28° S 22:26:35 66° ESE 22:32:14 10° NNE
Cosmos 407 Rocket 3.8 22:27:23 41° SE 22:28:26 47° ESE 22:33:26 10° NNE
USA 234 3.4 22:30:35 33° SSE 22:33:35 63° SW 22:40:07 10° NW
USA 81 4.1 22:30:55 10° N 22:36:13 76° W 22:38:24 36° S
Abrixas rocket 4.0 22:34:24 10° W 22:36:37 24° WSW 22:36:37 24° WSW
Cosmos 1943 Rocket 3.4 22:35:39 10° N 22:40:27 29° ENE 22:42:15 24° E
Cosmos 1766 3.6 22:38:24 10° N 22:42:13 51° ENE 22:42:13 51° ENE
Cosmos 489 Rocket 4.4 22:42:47 36° S 22:45:27 70° ESE 22:51:47 10° NNE
Cosmos 2279 Rocket 4.0 22:44:33 10° N 22:50:48 72° E 22:52:42 46° SSE
CZ-4C R/B 4.0 22:51:16 47° SW 22:52:01 54° W 22:56:06 10° NNW
USA 238 DEB 4.3 22:55:18 35° ESE 22:55:20 35° ESE 23:01:37 10° NE
USA 238 4.4 22:55:26 35° ESE 22:55:26 35° ESE 23:01:41 10° NE
SAR-Lupe-2 3.8 22:56:08 66° NW 22:56:08 66° NW 22:59:22 10° NNW
Cosmos 1953 Rocket 3.9 22:55:36 46° SW 22:56:38 60° W 23:01:02 10° N
Atlas Centaur 2 3.4 22:52:14 10° WSW 22:59:50 43° S 23:00:56 41° SSE
H-2A R/B 1.9 22:59:58 61° S 23:00:50 80° WSW 23:05:53 10° NNW
Cosmos 2180 Rocket 4.4 23:00:14 10° N 23:06:32 80° E 23:08:09 53° SSE
COSMOS 2455 4.0 23:02:09 10° WSW 23:07:47 41° NW 23:13:28 10° NNE
Cosmos 2369 Rocket 2.4 23:06:29 10° NNW 23:12:05 62° WSW 23:13:08 52° SSW
ARGOS 4.5 23:10:54 24° SW 23:12:59 31° W 23:17:47 10° NW
IGS 5A 3.7 23:13:13 64° W 23:13:13 64° W 23:17:13 10° NNW
Cosmos 1953 2.9 23:10:20 10° N 23:13:33 50° NNE 23:13:33 50° NNE
Spot 4 3.7 23:14:25 71° SW 23:14:45 76° WSW 23:19:33 10° NNW
Cosmos 1805 4.1 23:14:36 10° N 23:17:37 44° NNE 23:17:37 44° NNE
DMSP B5D2-2 4.3 23:14:02 10° N 23:19:17 67° WNW 23:20:42 47° SW
Cosmos-2242 3.1 23:17:51 10° N 23:21:58 77° NNW 23:21:58 77° NNW
Lacrosse 4 Rocket 2.3 23:31:19 43° WNW 23:31:31 44° WNW 23:35:27 10° NNE
COSMOS 2406 3.3 23:32:43 58° E 23:32:43 58° E 23:38:05 10° NNE
Cosmos 2263 4.4 23:28:03 10° NNW 23:33:34 57° WSW 23:34:04 55° SW
Terra 2.8 23:35:13 36° WSW 23:35:31 36° W 23:39:56 10° NNW
ALOS 2 4.1 23:41:59 27° ENE 23:41:59 27° ENE 23:45:17 10° N
Cosmos 1023 Rocket 4.4 23:44:27 85° ENE 23:44:27 85° ENE 23:49:38 10° NNE
Cosmos 1140 Rocket 3.4 23:49:34 85° NW 23:49:34 85° NW 23:54:47 10° NNE
Cosmos 1707 4.5 23:57:51 28° NE 23:57:51 28° NE 23:59:57 10° NNE
